Tracking 32407 objects as of 5-Dec-2025
HD Live streaming from Space Station
objects crossing your sky now

THORAD AGENA D DEB

Track THORAD AGENA D DEB now!
10-day predictions


NORAD ID: 42508
Int'l Code: 1970-025RN
Perigee: 838.4 km
Apogee: 1,014.9 km
Inclination: 99.8 °
Period: 103.4 minutes
Semi major axis: 7297 km
RCS: Unknown
Launch date: April 8, 1970
Source: United States (US)
Launch site: AIR FORCE WESTERN TEST RANGE (AFWTR)

Note: This is SATELLITE DEBRIS
Your satellite tracking list
Your tracking list is empty




NASA's NSSDC Master Catalog

Two Line Element Set (TLE):
1 42508U 70025RN  25337.38778792  .00000901  00000-0  69295-3 0  9998
2 42508  99.8322 193.0572 0120943 138.8942 222.1405 13.92597448148983
Source of the keplerian elements: AFSPC